Wind_Speed
29 29 28 27 25 25 25 23 22 21 20 19 19 20 19 19 19 18 18 18 17 16 15 14 13 13 13 13 13 13 14 13 13 13 13 14 15 15 15 15 14 13 12 13 13 13 13 13 12 12 12 12 12 11 11 10 10 9 9 9 9 8 8
31 32 30 27 25 24 25 25 24 23 22 21 19 20 20 19 20 19 19 19 18 17 16 15 14 13 13 14 14 14 14 14 14 13 13 14 15 15 15 14 13 12 12 11 12 13 13 13 12 12 11 11 10 10 10 9 9 8 8 8 8 8 7
30 33 31 27 26 25 23 22 22 22 22 22 21 20 21 21 21 20 20 19 19 18 16 15 14 13 13 14 14 15 15 15 15 15 14 14 15 15 15 14 13 12 11 11 11 11 12 13 12 12 11 11 11 10 9 9 8 8 8 8 7 7 7
30 31 31 29 28 28 24 21 21 22 21 20 20 20 21 21 21 20 19 19 18 18 17 16 15 14 14 14 14 15 15 16 16 16 15 15 15 16 16 15 14 12 11 10 10 11 11 12 12 12 12 11 11 10 10 9 9 8 8 8 7 7 6
28 28 28 29 28 27 25 22 21 22 21 19 19 19 20 20 20 20 19 19 18 18 16 15 14 14 14 14 14 15 15 16 17 17 16 16 16 16 16 16 15 13 11 10 10 11 11 11 11 11 11 11 10 10 9 9 9 9 8 8 7 7 7
25 27 27 29 28 27 27 25 23 22 22 21 21 20 20 21 21 21 20 19 19 18 16 14 13 12 13 14 14 15 15 16 17 17 17 17 17 17 17 17 16 15 13 11 10 11 10 10 10 9 10 10 10 9 9 8 8 8 8 8 8 8 8
22 26 28 29 29 29 29 28 25 23 23 23 21 21 21 21 21 20 19 19 20 20 19 18 16 14 13 13 14 14 15 15 16 17 18 18 18 18 18 17 17 16 14 13 11 11 11 10 9 9 8 8 8 9 9 8 8 8 7 7 7 7 7
18 22 25 27 28 29 30 29 27 26 25 23 22 22 21 21 20 19 19 20 21 22 22 21 19 18 16 15 15 15 15 15 15 16 17 18 18 18 18 18 18 17 16 14 13 12 11 10 10 9 9 8 8 8 9 9 8 8 8 8 8 7 7
16 16 20 26 29 27 28 29 28 29 27 25 24 24 23 22 22 21 21 22 22 22 22 21 20 19 19 18 18 18 17 17 16 16 17 18 18 19 19 19 19 18 18 16 14 12 12 11 10 9 9 9 9 9 9 9 9 9 9 9 9 8 8
16 16 17 23 27 25 24 27 29 29 28 27 27 26 25 24 23 23 22 21 21 21 22 22 23 22 22 20 20 19 19 19 18 17 18 19 19 20 20 20 20 20 19 18 16 14 13 12 11 10 10 10 10 9 9 10 10 10 10 10 10 10 10
17 18 17 19 23 23 20 22 27 29 29 29 28 27 27 26 25 24 22 22 23 23 23 23 24 24 23 21 21 21 20 21 20 19 19 20 21 21 21 21 21 20 20 19 18 16 14 13 12 12 12 11 10 10 10 10 10 11 11 11 11 11 11
17 18 18 18 21 22 20 18 21 26 27 27 27 27 28 28 27 27 25 25 27 27 25 25 25 25 23 21 22 23 24 24 23 21 19 20 21 22 22 22 21 20 20 19 18 17 15 14 13 13 13 12 11 11 10 10 10 11 11 11 12 12 12
19 19 19 19 19 22 23 21 20 21 21 21 23 27 28 28 27 27 27 27 28 28 27 26 26 27 26 24 24 24 25 25 26 24 21 20 21 22 22 22 21 20 19 19 18 17 17 15 15 15 14 14 13 12 11 11 11 11 11 11 11 11 11
20 21 20 20 19 20 23 23 21 21 21 20 21 24 24 24 24 24 24 25 25 26 27 27 27 27 28 26 25 24 23 24 25 25 23 21 22 24 24 23 22 21 21 20 19 18 17 17 16 16 15 15 15 14 13 12 12 12 11 10 10 10 10
19 20 20 19 20 20 22 23 22 21 23 23 24 23 21 20 21 21 21 21 21 23 25 27 27 26 26 25 25 24 24 25 25 24 23 23 24 26 26 24 22 21 20 19 20 19 19 18 17 16 16 16 16 15 15 14 14 13 12 11 10 10 10
18 18 20 20 21 21 23 24 23 22 23 24 26 26 24 20 18 19 20 20 20 22 22 24 26 26 25 24 24 24 25 26 26 26 25 24 24 25 26 25 23 21 19 20 21 21 22 22 20 18 17 17 17 17 16 16 16 16 14 13 12 11 10
19 19 21 22 23 23 24 25 25 24 24 24 25 26 26 24 20 18 19 19 20 22 21 19 20 22 24 24 24 24 25 27 27 27 27 26 24 24 24 23 22 22 22 23 24 24 24 24 23 21 19 18 18 18 18 19 19 19 17 16 14 13 13
22 22 23 24 24 25 26 26 27 27 26 26 25 25 26 26 24 21 19 18 19 22 22 20 18 18 20 21 22 23 25 27 29 30 30 29 27 25 24 24 24 25 25 25 26 27 26 24 23 23 22 21 20 20 20 22 22 22 20 19 18 17 16
25 26 26 27 27 28 28 28 28 28 28 28 27 26 25 26 26 25 24 21 20 22 23 22 22 21 20 19 19 21 22 25 28 29 31 32 31 29 27 26 27 28 28 28 28 28 27 26 24 23 23 24 23 23 23 24 24 24 23 22 21 20 19
26 28 29 29 29 29 29 30 30 30 30 29 29 28 27 27 27 27 27 25 23 22 22 21 21 23 24 22 19 19 21 23 26 28 30 33 33 32 30 29 29 30 30 30 30 29 28 27 26 26 26 26 26 26 26 26 26 26 25 25 24 24 23
25 27 29 30 31 31 31 31 31 31 31 30 31 30 29 29 29 29 29 28 26 25 24 23 22 23 24 24 22 20 20 22 25 28 30 32 33 32 31 30 29 30 30 31 32 31 30 28 27 28 28 28 28 27 26 26 26 26 26 27 27 27 26
26 27 28 29 31 32 33 33 33 33 33 33 33 33 32 32 32 32 32 31 29 28 27 27 27 26 25 25 24 23 23 23 25 27 29 31 32 32 30 29 28 28 28 29 31 32 32 32 31 30 30 30 29 28 27 26 26 26 28 29 30 30 29
29 29 29 29 30 31 32 33 34 35 36 36 36 36 36 35 35 35 34 34 33 32 31 30 30 30 30 29 27 26 26 26 27 27 28 29 30 31 30 29 29 28 28 29 30 31 33 34 34 33 33 32 30 29 27 26 27 29 31 32 32 32 30
34 34 33 32 32 32 33 34 35 35 36 37 37 37 37 37 37 37 37 36 36 35 35 34 33 32 32 32 32 30 29 29 29 28 29 29 29 29 29 29 30 30 30 31 31 31 33 35 36 35 34 33 32 30 29 29 30 33 33 33 33 31 30
38 39 39 37 37 36 36 36 37 37 37 38 38 38 37 37 37 37 37 37 38 38 37 36 36 35 34 34 34 33 32 30 30 30 30 30 30 29 29 29 28 29 30 31 32 32 33 35 35 35 35 34 32 31 32 33 34 35 34 34 34 33 32
37 40 41 40 39 39 39 39 38 38 38 39 39 39 39 38 38 38 37 37 38 38 39 38 38 37 36 36 35 35 34 33 31 31 31 31 31 31 30 29 28 27 29 30 31 32 33 34 35 35 35 36 35 34 34 36 37 37 37 36 36 36 35
38 40 41 41 40 40 40 40 40 39 39 39 39 39 39 40 39 39 39 39 38 38 38 38 38 38 38 38 37 36 36 35 33 32 31 32 33 33 31 30 28 28 29 29 29 30 31 33 35 36 37 38 38 37 37 37 38 39 39 39 38 37 36
39 40 42 43 43 43 42 42 41 40 40 40 40 40 40 40 40 40 39 40 40 40 39 38 38 38 38 38 38 38 37 37 36 34 33 33 34 34 33 32 30 30 30 31 31 31 31 32 34 36 38 39 38 38 38 38 38 39 41 40 39 38 37
40 41 42 43 44 43 43 42 42 42 42 41 41 41 41 41 41 41 41 41 41 41 41 40 40 40 39 38 38 39 39 38 38 37 36 36 36 36 35 35 34 33 32 33 33 33 33 33 33 34 37 38 37 38 38 39 39 40 42 42 41 39 38
41 42 42 43 44 44 44 43 43 43 43 43 43 43 43 43 43 43 42 42 42 42 42 42 42 42 41 40 40 40 40 40 40 40 40 39 39 38 38 38 37 37 36 35 35 35 35 35 34 34 35 35 36 38 39 40 41 41 42 43 43 42 40
40 41 42 43 44 45 46 46 46 46 46 45 45 45 45 45 45 46 46 45 45 44 44 44 44 44 44 43 43 43 43 43 43 43 43 42 41 41 41 40 40 40 40 39 38 38 38 37 37 36 35 35 36 38 39 40 40 41 43 44 44 43 42
39 39 39 40 41 43 45 46 47 48 48 47 47 47 47 47 48 48 48 48 47 47 47 47 47 46 46 46 46 45 45 46 46 46 46 45 45 44 44 43 43 43 42 42 41 41 41 40 40 39 37 37 37 38 39 40 40 40 42 44 45 45 43
39 39 38 38 39 40 42 44 45 46 47 47 47 47 48 49 50 50 50 50 49 49 49 49 49 49 49 49 48 48 47 47 47 48 48 48 48 48 47 47 46 46 46 45 44 44 43 43 43 42 40 39 39 39 40 41 41 41 42 44 45 45 44
39 40 40 39 39 40 41 42 43 44 44 45 46 46 47 48 49 50 50 51 51 51 52 52 52 52 52 52 52 51 50 49 48 48 49 49 49 50 50 50 49 49 49 48 47 47 46 46 46 46 45 43 41 41 41 42 42 42 42 43 45 45 43
38 39 40 40 41 41 42 42 42 43 43 44 45 46 46 47 47 48 49 50 51 52 52 53 53 53 53 54 54 54 53 52 51 50 50 50 50 50 50 51 52 52 51 51 51 50 49 49 49 49 48 47 45 44 44 44 43 43 43 43 44 44 43
38 38 39 40 41 41 42 43 44 44 45 45 46 46 46 46 47 47 48 48 49 50 51 52 53 53 54 54 55 55 54 54 53 52 52 51 51 51 51 51 52 53 53 53 54 53 53 52 52 52 52 51 50 49 48 47 47 46 45 45 45 44 43
39 39 40 41 41 41 41 42 44 45 46 46 46 46 47 48 48 48 48 48 48 49 50 51 52 52 53 54 54 55 55 55 54 54 53 53 52 52 52 52 52 54 54 54 54 55 56 55 55 55 55 55 54 53 53 52 51 50 49 49 49 48 47
40 41 42 42 42 42 42 42 44 45 46 46 46 46 47 48 48 49 49 49 49 49 50 50 51 52 52 53 54 55 56 56 56 55 54 54 54 53 53 53 53 53 54 55 55 56 57 58 58 57 57 57 57 57 57 56 55 55 54 54 54 54 53
Wind_Direction
209 207 206 204 200 197 194 189 187 193 197 200 205 208 203 203 204 201 200 201 198 198 199 198 195 192 191 189 188 187 183 179 175 170 168 167 166 164 161 160 161 162 162 159 157 155 154 154 152 149 148 148 147 147 147 147 147 144 139 138 139 140 138
208 207 209 210 207 202 198 193 189 191 195 196 202 211 209 208 208 204 202 203 201 201 201 199 196 194 194 194 192 190 188 186 182 178 175 173 172 172 170 168 167 166 166 168 169 168 166 164 162 159 159 158 156 156 158 159 158 154 149 149 151 150 145
208 210 212 212 210 205 201 199 196 193 197 198 198 207 212 211 211 207 204 205 204 203 202 199 195 194 196 199 197 193 192 191 189 187 183 179 177 178 177 175 174 173 173 175 179 180 176 172 171 170 170 171 169 169 172 172 171 170 169 168 168 166 162
210 212 212 211 210 205 199 202 204 200 200 202 201 207 214 215 214 211 207 207 208 207 205 201 195 192 195 201 203 199 197 195 194 193 190 186 183 182 181 181 181 180 180 181 184 186 182 177 175 174 176 178 177 178 181 183 184 186 188 188 185 184 184
209 208 208 207 205 203 202 205 209 204 201 204 206 209 214 216 215 213 209 207 209 211 211 207 199 195 196 201 205 205 203 202 199 197 195 193 191 188 186 185 185 186 186 187 186 186 184 179 176 176 175 176 177 180 183 188 191 193 196 197 195 196 200
208 204 202 202 201 202 206 210 210 205 202 205 207 209 212 213 212 211 210 207 207 211 213 212 209 206 205 206 209 210 208 206 205 203 201 199 197 195 193 190 189 189 189 190 188 187 186 182 181 182 181 179 178 180 183 187 192 194 196 198 198 199 203
211 207 200 199 203 207 210 212 212 209 207 208 208 207 212 214 209 207 209 211 208 206 207 207 206 206 209 213 215 217 216 213 209 208 207 206 204 201 199 198 196 195 194 193 191 189 189 189 190 193 194 194 191 188 188 191 195 197 198 202 203 202 203
211 210 205 202 206 210 210 212 214 214 213 212 207 204 210 216 212 205 207 214 213 208 207 206 204 202 202 207 213 218 221 220 217 214 212 212 211 208 205 204 203 202 202 201 196 194 194 195 199 203 204 207 208 205 199 197 199 202 203 206 208 208 207
211 210 213 211 208 209 211 214 216 216 215 211 206 204 206 213 215 208 206 211 213 211 209 207 207 206 205 206 209 215 220 221 219 217 217 217 216 215 212 210 209 209 210 209 204 201 200 201 206 212 214 214 216 217 212 205 204 206 207 209 211 214 212
210 205 210 213 210 209 214 217 216 215 212 209 208 209 209 211 215 215 212 213 216 216 212 209 208 208 210 211 210 213 220 222 219 217 217 218 217 217 217 215 213 213 216 216 213 209 206 207 212 218 222 222 220 220 219 213 208 207 209 211 212 214 215
207 205 205 210 209 208 212 215 213 212 211 209 210 212 213 212 213 216 216 216 217 218 218 216 214 210 212 215 213 214 219 224 223 220 219 220 218 216 216 217 216 216 218 220 220 218 213 211 216 220 225 227 226 224 221 218 212 208 208 211 213 215 215
213 209 206 209 210 210 211 209 206 206 207 210 213 214 215 215 214 214 216 214 215 219 221 222 220 216 216 216 215 217 220 222 223 222 222 227 228 222 216 216 216 217 219 223 225 226 222 217 218 223 227 228 228 228 225 221 218 213 209 210 213 215 216
219 212 209 210 212 216 220 218 211 207 207 212 213 212 213 216 215 214 214 212 215 221 222 221 219 219 220 219 217 218 218 218 220 220 220 227 236 235 226 218 216 215 216 219 224 230 233 229 224 224 227 229 229 229 228 225 223 220 217 213 213 215 218
220 214 210 211 212 217 223 226 224 219 215 214 209 205 208 214 215 213 212 213 217 221 222 223 221 220 221 221 220 218 217 219 221 218 217 222 234 241 236 227 220 216 215 215 216 223 231 235 235 231 229 229 231 232 230 228 226 225 224 221 216 216 217
222 216 212 213 216 220 225 228 228 224 221 219 215 214 217 221 221 215 211 213 218 220 223 225 224 222 223 225 226 225 225 228 228 223 221 221 227 237 240 235 228 222 220 220 219 219 223 229 235 238 237 234 233 235 235 234 232 230 228 226 223 219 217
226 223 219 218 219 224 228 231 232 231 230 229 229 229 230 229 226 221 216 217 220 223 224 225 223 222 225 229 233 234 233 233 233 232 230 225 223 230 235 234 231 227 224 224 223 223 222 222 224 229 235 238 238 238 239 240 239 236 232 231 228 226 222
225 227 226 224 224 227 230 233 234 235 236 236 236 235 233 231 233 235 230 224 222 223 227 230 228 226 226 228 232 234 233 233 233 233 230 223 221 226 230 230 231 230 228 226 225 224 223 224 223 222 222 226 232 236 240 242 242 239 235 234 232 230 228
221 224 226 227 227 229 231 234 236 237 238 238 237 237 235 233 235 238 237 233 229 230 233 237 237 234 232 232 233 233 234 234 235 233 229 224 226 231 235 236 235 231 229 228 228 227 225 224 226 227 224 221 223 228 234 239 241 240 237 235 234 232 231
223 224 226 227 228 229 231 233 236 238 240 240 238 238 239 238 238 239 243 247 247 243 244 246 246 246 245 244 241 239 240 240 240 239 236 235 239 242 242 240 237 233 230 229 230 231 229 225 225 227 229 227 224 224 228 233 237 239 239 237 236 236 235
225 227 228 230 231 233 234 235 236 237 239 241 240 239 239 242 244 245 249 253 253 250 250 253 255 254 253 252 251 250 248 246 246 247 246 246 247 246 244 242 238 233 231 232 231 230 230 228 226 225 226 229 230 228 228 231 234 237 238 239 239 238 237
223 225 228 230 233 237 240 241 241 241 241 242 242 242 241 243 246 249 252 254 254 253 252 252 253 254 255 254 255 256 254 250 248 249 252 253 251 247 245 243 237 232 232 234 233 232 231 230 229 227 225 226 231 233 234 235 236 238 240 241 241 240 238
227 225 226 228 230 233 238 241 244 245 245 245 245 245 245 246 248 250 253 254 254 253 253 252 251 251 253 255 255 254 254 253 250 249 250 253 254 250 246 242 236 231 232 234 235 236 235 232 230 230 229 227 228 232 236 239 241 243 243 243 244 243 241
234 230 229 229 230 231 234 238 241 244 246 247 247 247 247 248 249 251 253 254 255 255 255 255 253 251 251 252 253 254 253 253 253 251 248 250 252 252 250 245 240 234 233 234 236 239 240 236 232 232 232 232 231 230 232 237 241 243 244 244 244 245 246
239 237 236 236 235 235 235 237 238 241 244 246 248 248 248 248 249 249 251 253 255 256 256 256 255 254 252 251 251 252 253 254 254 252 249 249 250 251 251 250 247 241 237 237 239 242 242 238 235 234 234 235 236 235 234 235 238 241 244 246 246 246 246
242 242 241 240 239 239 239 239 239 240 242 244 246 248 249 249 249 249 250 250 251 253 254 254 255 255 254 253 251 251 252 252 253 252 250 250 251 250 250 251 251 247 243 241 242 244 243 239 235 235 235 236 239 240 238 237 239 241 242 244 246 247 245
240 241 241 240 239 238 238 239 240 240 240 241 244 246 248 249 250 251 251 251 250 251 251 252 253 254 255 254 254 253 252 252 252 252 251 251 252 252 250 248 248 247 245 243 243 245 246 242 238 238 239 241 242 242 240 240 241 243 243 242 244 246 246
237 238 239 239 237 236 235 236 238 239 240 241 243 244 246 248 250 252 254 255 255 254 253 253 253 253 254 255 255 255 255 254 253 252 252 252 253 255 255 252 251 250 250 249 247 248 249 247 244 245 247 248 246 243 241 241 242 243 244 245 244 244 245
235 236 237 239 239 238 237 237 238 240 241 242 243 244 246 248 249 251 253 256 258 259 258 258 257 256 255 256 256 256 256 256 255 254 252 251 251 253 254 255 255 254 253 254 253 253 252 251 249 248 250 252 251 247 243 243 242 242 243 245 247 246 246
236 236 237 239 241 242 242 242 241 241 242 242 243 244 245 247 249 250 251 253 256 258 259 260 260 260 259 258 258 258 259 258 257 255 253 251 249 249 249 251 252 252 252 252 253 253 253 253 252 251 251 253 253 252 249 246 243 242 243 244 246 247 247
239 239 239 241 243 245 246 246 245 244 243 243 244 245 246 248 249 250 250 251 252 253 255 256 257 258 259 259 259 260 260 260 260 258 256 254 251 249 247 247 248 249 249 250 251 252 253 253 253 253 254 254 254 254 253 250 246 243 243 244 245 245 246
241 241 242 242 244 245 246 247 248 247 246 246 246 247 248 249 249 250 250 251 251 251 252 253 254 255 256 257 258 258 259 260 261 261 260 258 256 254 251 248 247 247 248 248 248 250 252 254 254 254 254 255 256 256 255 252 249 247 246 246 245 244 245
240 241 242 242 243 244 245 247 248 249 250 250 249 249 248 249 249 250 251 251 252 252 253 253 254 254 255 255 256 256 257 258 260 261 261 261 260 259 256 253 250 249 248 248 247 248 250 253 254 254 254 254 255 256 255 254 252 251 250 249 248 247 247
240 240 241 241 241 242 243 245 247 249 251 251 251 251 250 249 250 251 252 253 253 253 254 254 254 255 255 255 255 255 255 256 257 258 259 260 260 260 259 257 255 253 251 250 248 248 249 251 253 255 255 254 253 254 254 254 254 254 254 251 250 249 248
243 243 243 243 243 243 244 245 246 248 249 250 251 251 251 251 251 252 252 253 253 254 254 255 255 256 256 256 256 255 255 255 255 256 256 257 257 257 258 258 258 256 255 253 251 249 248 248 250 252 254 253 253 253 253 253 254 254 253 251 249 248 247
246 246 246 247 247 247 247 247 247 247 248 248 249 251 252 253 253 252 252 252 253 254 254 255 255 256 257 257 258 258 257 256 255 255 255 255 255 254 254 255 256 257 257 256 255 253 251 249 249 250 251 251 252 252 252 253 252 252 250 249 248 247 246
249 248 247 247 248 248 249 249 250 249 248 248 249 250 252 253 253 252 252 253 253 253 254 254 255 256 256 257 258 259 259 258 258 257 256 255 255 254 253 253 253 254 255 255 256 256 255 253 252 250 250 250 250 250 250 251 252 252 251 251 250 250 250
252 251 250 249 248 248 249 250 251 251 250 250 250 251 251 252 252 253 253 253 253 253 253 254 254 255 256 256 257 258 259 259 259 258 258 256 256 255 254 253 253 253 253 253 253 255 255 255 254 253 252 251 251 251 250 249 249 250 251 252 252 253 254
255 254 253 252 251 250 249 250 251 252 252 252 252 252 252 252 252 253 253 254 254 254 253 253 254 254 254 255 256 256 257 259 259 259 259 258 257 256 255 254 253 252 252 251 251 251 252 253 254 254 254 253 252 252 252 251 250 249 250 251 252 253 254
Height
5907 5909 5911 5913 5914 5915 5918 5920 5924 5926 5928 5930 5931 5932 5934 5935 5936 5937 5938 5940 5941 5943 5944 5945 5946 5947 5948 5949 5950 5952 5953 5954 5956 5957 5958 5959 5960 5962 5963 5964 5966 5966 5967 5968 5968 5968 5969 5969 5970 5970 5970 5971 5971 5972 5972 5973 5974 5974 5974 5975 5976 5976 5977
5905 5907 5910 5913 5914 5915 5916 5918 5921 5924 5926 5928 5929 5931 5933 5935 5935 5936 5937 5938 5940 5941 5943 5944 5945 5946 5947 5948 5950 5951 5953 5954 5955 5956 5957 5958 5959 5961 5962 5964 5965 5966 5967 5968 5968 5969 5969 5969 5970 5970 5971 5971 5972 5972 5973 5973 5973 5974 5974 5975 5976 5976 5976
5903 5905 5908 5911 5914 5916 5918 5919 5920 5922 5924 5925 5927 5929 5931 5934 5935 5936 5937 5938 5939 5940 5942 5943 5945 5946 5947 5948 5949 5951 5952 5953 5955 5956 5956 5957 5958 5960 5961 5963 5964 5965 5966 5967 5968 5969 5969 5969 5970 5970 5971 5972 5972 5973 5973 5973 5973 5974 5974 5975 5975 5976 5976
5901 5904 5906 5909 5912 5914 5917 5918 5919 5921 5923 5925 5927 5928 5930 5933 5934 5936 5937 5938 5939 5940 5941 5942 5944 5945 5946 5947 5948 5950 5951 5953 5954 5955 5956 5957 5957 5958 5960 5961 5962 5964 5965 5966 5967 5968 5969 5969 5969 5970 5970 5971 5971 5972 5973 5973 5973 5973 5974 5974 5974 5975 5975
5901 5903 5906 5908 5910 5912 5914 5916 5917 5920 5923 5924 5926 5927 5929 5931 5933 5935 5936 5938 5939 5940 5941 5942 5943 5944 5945 5946 5947 5949 5950 5952 5953 5954 5955 5956 5957 5957 5958 5959 5961 5962 5964 5965 5966 5967 5968 5969 5969 5970 5970 5970 5971 5971 5972 5972 5973 5973 5973 5973 5974 5974 5975
5900 5902 5904 5906 5908 5910 5913 5914 5916 5918 5920 5921 5923 5926 5927 5929 5931 5933 5935 5937 5938 5939 5940 5942 5943 5944 5945 5946 5947 5948 5949 5951 5952 5954 5955 5956 5956 5957 5957 5958 5960 5961 5963 5964 5965 5966 5967 5968 5969 5969 5970 5970 5970 5971 5971 5972 5972 5972 5972 5973 5973 5973 5974
5898 5900 5902 5904 5907 5909 5911 5913 5915 5917 5918 5919 5922 5925 5927 5928 5929 5932 5934 5936 5937 5938 5938 5939 5941 5942 5944 5945 5946 5947 5948 5950 5951 5953 5954 5955 5956 5956 5957 5958 5959 5960 5961 5962 5964 5965 5966 5967 5968 5969 5969 5969 5970 5970 5970 5971 5971 5971 5971 5972 5972 5972 5973
5896 5898 5900 5903 5905 5907 5909 5911 5912 5914 5916 5919 5922 5925 5926 5928 5929 5930 5932 5934 5935 5936 5936 5937 5938 5940 5941 5943 5945 5946 5947 5949 5950 5952 5954 5955 5956 5956 5957 5957 5958 5959 5960 5961 5962 5964 5965 5966 5967 5968 5969 5969 5969 5969 5969 5969 5970 5970 5970 5971 5971 5971 5972
5895 5897 5899 5901 5903 5905 5907 5908 5909 5912 5915 5918 5920 5922 5924 5926 5927 5928 5928 5930 5932 5934 5935 5937 5938 5939 5939 5940 5942 5944 5946 5947 5949 5951 5952 5954 5955 5955 5956 5956 5957 5958 5959 5960 5961 5962 5964 5965 5966 5967 5968 5968 5969 5969 5968 5968 5968 5969 5969 5969 5970 5970 5970
5894 5896 5898 5900 5902 5904 5905 5906 5907 5910 5913 5915 5917 5919 5921 5923 5924 5925 5926 5929 5933 5934 5934 5935 5936 5937 5938 5939 5940 5942 5944 5946 5947 5948 5950 5952 5953 5954 5955 5955 5956 5957 5958 5959 5960 5961 5962 5964 5965 5966 5967 5968 5968 5968 5968 5968 5968 5968 5968 5968 5968 5969 5969
5892 5894 5897 5899 5901 5904 5904 5904 5906 5907 5909 5912 5914 5916 5917 5920 5922 5924 5926 5929 5932 5932 5933 5933 5934 5934 5936 5937 5939 5940 5942 5944 5945 5946 5947 5949 5951 5951 5952 5953 5954 5955 5957 5958 5959 5960 5961 5962 5964 5965 5966 5967 5968 5968 5968 5967 5967 5967 5967 5967 5967 5967 5968
5892 5894 5896 5897 5900 5902 5902 5904 5905 5905 5906 5909 5911 5913 5914 5916 5919 5921 5923 5925 5927 5929 5931 5931 5932 5933 5934 5935 5937 5937 5939 5941 5943 5945 5945 5947 5949 5950 5950 5951 5952 5953 5955 5957 5959 5960 5960 5961 5962 5963 5964 5966 5967 5967 5967 5967 5967 5966 5966 5966 5966 5966 5966
5891 5893 5895 5896 5898 5899 5900 5902 5904 5903 5905 5907 5909 5910 5911 5913 5916 5918 5920 5922 5923 5926 5929 5929 5929 5930 5931 5932 5934 5935 5936 5938 5940 5941 5942 5944 5948 5950 5950 5950 5950 5951 5953 5954 5957 5959 5960 5960 5960 5961 5962 5964 5965 5966 5966 5967 5966 5966 5966 5966 5965 5965 5965
5888 5891 5893 5895 5896 5897 5898 5899 5901 5902 5904 5906 5908 5909 5910 5912 5914 5916 5919 5920 5921 5924 5926 5927 5927 5927 5927 5928 5930 5933 5935 5937 5938 5939 5938 5940 5945 5948 5950 5950 5949 5950 5951 5952 5954 5956 5958 5959 5959 5959 5960 5961 5963 5964 5965 5965 5966 5966 5966 5965 5965 5965 5965
5886 5889 5891 5893 5894 5895 5896 5897 5899 5901 5903 5905 5907 5908 5909 5910 5912 5914 5917 5918 5920 5921 5923 5924 5925 5926 5927 5927 5928 5930 5933 5935 5937 5937 5937 5937 5940 5944 5947 5949 5949 5949 5950 5952 5952 5953 5954 5955 5957 5958 5959 5960 5961 5962 5963 5964 5964 5964 5965 5965 5965 5965 5965
5884 5887 5889 5891 5892 5893 5894 5895 5897 5899 5901 5903 5905 5906 5907 5908 5909 5912 5914 5916 5918 5919 5919 5921 5922 5923 5925 5926 5926 5928 5929 5931 5934 5936 5937 5937 5938 5940 5944 5946 5947 5947 5948 5949 5950 5950 5950 5951 5952 5954 5956 5957 5959 5960 5961 5962 5962 5963 5963 5964 5964 5965 5965
5882 5884 5887 5889 5891 5892 5893 5893 5894 5896 5898 5900 5901 5903 5905 5906 5908 5910 5912 5914 5915 5915 5916 5917 5919 5920 5922 5922 5923 5925 5927 5928 5931 5933 5935 5935 5936 5938 5940 5943 5944 5944 5944 5945 5946 5946 5947 5948 5949 5950 5951 5953 5955 5957 5959 5959 5960 5960 5961 5962 5963 5963 5964
5879 5881 5884 5886 5888 5889 5890 5891 5892 5894 5895 5897 5899 5901 5902 5903 5906 5908 5909 5910 5912 5913 5914 5915 5916 5918 5919 5920 5921 5923 5925 5927 5929 5931 5932 5933 5933 5934 5936 5938 5939 5940 5940 5941 5942 5943 5944 5946 5947 5948 5949 5949 5951 5953 5955 5956 5957 5958 5959 5960 5961 5961 5962
5878 5879 5881 5883 5884 5886 5887 5888 5890 5892 5893 5895 5897 5899 5900 5901 5902 5904 5905 5906 5909 5911 5911 5912 5914 5915 5916 5918 5919 5921 5922 5924 5926 5928 5929 5930 5930 5931 5933 5934 5935 5936 5937 5939 5939 5940 5942 5944 5945 5946 5947 5947 5947 5948 5949 5951 5953 5955 5957 5958 5959 5959 5960
5876 5877 5879 5880 5881 5883 5884 5886 5888 5890 5891 5892 5894 5896 5898 5899 5899 5900 5902 5904 5906 5908 5909 5910 5912 5913 5913 5914 5915 5917 5919 5920 5922 5924 5925 5925 5926 5928 5930 5931 5932 5933 5934 5936 5937 5938 5939 5940 5942 5943 5943 5943 5944 5944 5946 5948 5950 5952 5954 5955 5956 5956 5957
5875 5876 5877 5878 5879 5880 5881 5883 5885 5887 5888 5890 5891 5893 5895 5896 5897 5898 5899 5900 5903 5905 5907 5909 5910 5911 5912 5912 5913 5915 5916 5918 5919 5920 5921 5922 5922 5924 5926 5927 5928 5930 5932 5933 5934 5935 5936 5937 5939 5940 5940 5941 5941 5942 5943 5945 5948 5950 5951 5952 5952 5952 5953
5873 5874 5874 5875 5877 5878 5879 5880 5881 5883 5884 5886 5887 5889 5891 5893 5894 5895 5896 5897 5899 5901 5904 5906 5908 5909 5910 5911 5912 5913 5914 5916 5917 5918 5918 5919 5918 5919 5921 5924 5925 5926 5928 5930 5932 5933 5934 5935 5936 5936 5937 5938 5939 5941 5942 5944 5946 5947 5947 5947 5946 5947 5949
5869 5870 5872 5873 5874 5875 5876 5877 5878 5879 5880 5881 5883 5885 5887 5889 5891 5892 5893 5894 5896 5898 5900 5902 5904 5906 5907 5908 5909 5910 5911 5913 5914 5914 5915 5916 5916 5915 5916 5919 5922 5923 5925 5926 5928 5930 5931 5932 5933 5933 5934 5935 5937 5939 5941 5942 5942 5941 5941 5941 5942 5943 5946
5864 5866 5868 5869 5871 5872 5873 5873 5875 5876 5876 5877 5879 5880 5882 5885 5887 5888 5890 5891 5892 5894 5895 5897 5899 5901 5903 5904 5906 5907 5908 5909 5910 5911 5912 5913 5913 5912 5912 5915 5917 5920 5921 5922 5923 5924 5926 5928 5929 5930 5931 5932 5934 5936 5938 5939 5937 5936 5936 5936 5938 5940 5943
5860 5861 5863 5864 5866 5867 5868 5869 5871 5873 5873 5874 5875 5876 5878 5880 5882 5884 5886 5887 5889 5890 5891 5893 5894 5896 5898 5900 5901 5903 5904 5905 5906 5908 5909 5909 5909 5909 5910 5911 5913 5915 5917 5918 5919 5919 5921 5923 5925 5926 5928 5929 5930 5932 5933 5933 5932 5932 5934 5934 5934 5936 5938
5855 5855 5856 5859 5861 5862 5863 5864 5866 5868 5869 5870 5871 5872 5874 5875 5877 5879 5880 5882 5884 5886 5887 5888 5890 5892 5893 5895 5896 5898 5899 5901 5902 5904 5905 5905 5906 5906 5907 5908 5910 5911 5913 5914 5915 5916 5916 5918 5920 5922 5924 5925 5926 5928 5928 5928 5928 5929 5930 5930 5931 5932 5933
5850 5849 5851 5853 5854 5856 5857 5858 5860 5862 5864 5865 5867 5868 5869 5870 5872 5873 5875 5876 5878 5880 5882 5884 5885 5887 5888 5889 5891 5892 5893 5895 5897 5898 5900 5901 5901 5903 5904 5904 5905 5907 5908 5910 5912 5912 5913 5914 5916 5918 5919 5920 5921 5923 5923 5924 5925 5926 5926 5926 5928 5928 5929
5843 5844 5846 5846 5847 5849 5852 5854 5856 5858 5859 5860 5861 5863 5864 5865 5866 5868 5870 5870 5871 5873 5875 5877 5879 5881 5882 5884 5885 5886 5888 5889 5891 5893 5895 5896 5897 5899 5900 5901 5902 5903 5904 5906 5907 5908 5908 5909 5911 5912 5913 5914 5916 5917 5918 5920 5921 5922 5922 5922 5923 5925 5926
5837 5839 5841 5841 5841 5844 5847 5849 5851 5853 5854 5855 5856 5858 5860 5861 5862 5863 5865 5866 5867 5868 5869 5871 5873 5874 5876 5878 5880 5881 5882 5884 5885 5887 5889 5892 5894 5895 5896 5897 5898 5899 5900 5901 5902 5903 5904 5904 5905 5907 5908 5910 5911 5912 5914 5915 5917 5917 5918 5918 5919 5920 5921
5831 5833 5835 5836 5837 5839 5841 5843 5845 5847 5849 5850 5851 5853 5855 5856 5857 5858 5860 5861 5863 5864 5865 5866 5867 5868 5870 5872 5874 5875 5876 5877 5879 5881 5883 5886 5888 5890 5892 5893 5895 5896 5896 5897 5898 5898 5899 5900 5901 5902 5904 5905 5906 5907 5908 5910 5912 5913 5913 5913 5913 5914 5915
5825 5826 5828 5830 5831 5833 5834 5835 5837 5839 5841 5844 5847 5848 5849 5850 5851 5852 5853 5855 5857 5859 5860 5862 5863 5864 5865 5867 5868 5869 5870 5871 5873 5874 5876 5879 5882 5883 5885 5888 5889 5891 5892 5893 5893 5894 5894 5895 5896 5897 5899 5901 5901 5902 5903 5904 5906 5907 5908 5908 5909 5909 5909
5819 5820 5822 5824 5825 5826 5827 5828 5829 5831 5834 5837 5839 5841 5842 5844 5845 5846 5847 5849 5851 5853 5855 5856 5857 5859 5860 5861 5862 5864 5865 5866 5867 5868 5870 5872 5874 5876 5878 5881 5883 5885 5887 5888 5889 5889 5890 5890 5891 5892 5894 5896 5897 5897 5898 5899 5900 5901 5902 5903 5903 5904 5904
5813 5815 5817 5818 5818 5819 5820 5821 5823 5825 5827 5829 5830 5832 5834 5836 5837 5839 5841 5843 5844 5846 5847 5849 5850 5852 5853 5855 5856 5858 5859 5861 5862 5863 5864 5867 5868 5869 5871 5873 5875 5878 5880 5881 5883 5884 5885 5885 5885 5887 5888 5890 5891 5892 5893 5894 5894 5895 5896 5897 5897 5898 5899
5807 5809 5810 5811 5812 5812 5813 5815 5817 5819 5820 5821 5821 5823 5825 5827 5830 5832 5834 5835 5837 5838 5840 5841 5842 5844 5845 5846 5848 5850 5852 5854 5856 5857 5858 5860 5862 5863 5864 5866 5868 5870 5871 5873 5876 5878 5879 5880 5880 5881 5883 5884 5886 5887 5888 5889 5889 5890 5891 5891 5892 5893 5893
5800 5802 5803 5804 5804 5805 5806 5809 5811 5812 5813 5813 5814 5816 5818 5820 5822 5824 5826 5827 5829 5831 5832 5833 5834 5836 5837 5838 5840 5842 5844 5846 5848 5850 5851 5853 5854 5855 5857 5859 5860 5862 5863 5865 5867 5869 5872 5873 5874 5875 5876 5878 5879 5881 5882 5883 5884 5885 5886 5886 5887 5888 5889
5794 5796 5797 5797 5797 5798 5800 5802 5803 5804 5805 5807 5808 5810 5812 5813 5814 5815 5817 5820 5821 5822 5824 5825 5827 5828 5830 5831 5832 5833 5835 5838 5840 5842 5844 5845 5846 5848 5850 5852 5852 5854 5856 5857 5859 5861 5863 5865 5866 5868 5869 5871 5872 5874 5875 5876 5877 5878 5879 5880 5881 5882 5883
5788 5789 5789 5790 5791 5793 5795 5795 5795 5795 5797 5799 5802 5804 5805 5805 5805 5807 5809 5811 5812 5814 5816 5818 5819 5820 5821 5823 5824 5825 5827 5829 5831 5833 5835 5837 5839 5840 5842 5844 5845 5846 5848 5850 5852 5852 5853 5855 5857 5859 5861 5863 5864 5866 5867 5868 5870 5871 5872 5873 5874 5875 5876
5780 5781 5781 5782 5785 5787 5789 5789 5788 5788 5789 5793 5795 5796 5797 5797 5798 5800 5801 5802 5804 5806 5808 5810 5811 5812 5813 5815 5816 5817 5819 5821 5823 5825 5826 5828 5830 5832 5833 5835 5837 5838 5839 5841 5843 5844 5845 5846 5849 5850 5851 5853 5855 5857 5858 5860 5861 5863 5864 5865 5867 5868 5869